SCP
0 0 0 0 0 0 0 0 0 0 0 0 0 0 0 0 0 0 0 0 0 0 0 0 0 0 1 1 1 1 1 1 2 2 2 2 1 1 1 1 1 1 1 1
0 0 0 0 0 0 0 0 0 0 0 0 0 0 0 0 0 0 0 0 0 0 0 0 0 0 0 1 1 1 1 1 2 2 2 2 1 1 1 1 1 1 1 1
0 0 0 0 0 0 0 0 0 0 0 0 0 0 0 0 0 0 0 0 0 0 0 0 0 0 0 1 1 1 1 1 2 2 2 2 2 1 1 1 1 1 1 1
0 0 0 0 0 0 0 0 0 0 0 0 0 0 0 0 0 0 0 0 0 0 0 0 0 0 0 1 1 1 2 2 2 2 2 2 2 1 2 2 2 2 1 1
0 0 0 0 0 0 0 0 0 0 0 0 0 0 0 0 0 0 0 0 0 0 0 0 0 0 0 1 1 1 2 2 2 2 2 2 2 2 2 2 2 2 2 1
0 0 0 0 0 0 0 0 0 0 0 0 0 0 0 0 0 0 0 0 0 0 0 0 0 0 0 1 1 1 2 2 2 2 2 2 2 2 2 2 2 2 2 2
0 0 0 0 0 0 0 0 0 0 0 0 0 0 0 0 0 0 0 0 0 0 0 0 0 0 0 0 1 1 1 1 1 1 2 2 2 3 3 3 3 3 2 2
0 0 0 0 0 0 0 0 0 0 0 0 0 0 0 0 0 0 0 0 0 0 1 1 1 0 0 0 0 1 1 1 1 1 1 1 2 2 3 3 3 3 3 3
0 0 0 0 0 0 0 0 0 0 0 0 0 0 0 0 0 0 0 0 0 1 1 1 1 1 1 1 1 1 1 1 1 2 2 2 2 2 2 2 3 3 3 3
0 0 0 0 0 0 0 0 0 0 0 0 0 0 0 0 0 0 0 0 0 1 1 2 2 2 2 2 2 2 2 2 2 2 2 2 2 2 2 2 2 2 2 2
0 0 0 0 0 0 0 0 0 0 0 0 0 0 0 0 0 0 0 0 0 1 2 2 3 3 3 3 3 3 3 3 3 3 3 3 2 2 1 1 1 1 1 1
0 0 0 0 0 0 0 0 0 0 0 0 0 0 0 0 0 0 0 0 0 1 1 2 2 3 3 3 4 3 3 3 3 3 3 2 2 1 1 0 0 0 0 0
0 0 0 0 0 0 0 0 0 0 0 0 0 0 0 0 0 0 0 0 0 0 1 1 1 1 2 3 3 3 3 3 2 2 2 1 1 1 0 0 0 0 0 0
0 0 0 0 0 0 0 0 0 0 0 0 0 0 0 0 0 0 0 0 0 0 0 0 0 0 1 1 2 2 1 1 1 1 1 1 1 1 0 0 0 0 0 0
0 0 0 0 0 0 0 0 0 0 0 0 0 0 0 0 0 0 0 0 0 0 0 0 0 0 0 0 0 0 0 0 0 0 0 0 0 0 0 0 0 0 0 0
0 0 0 0 0 0 0 0 0 0 0 0 0 0 0 0 0 0 0 0 0 0 0 0 0 0 0 0 0 0 0 0 0 0 0 0 0 0 0 0 0 0 0 0
0 0 0 0 0 0 0 0 0 0 0 0 0 0 0 0 0 0 0 0 0 0 0 0 0 0 0 0 0 0 0 0 0 0 0 0 0 0 0 0 0 0 0 0
0 0 0 0 0 0 0 0 0 0 0 0 0 0 0 0 0 0 0 0 0 0 0 0 0 0 0 0 0 0 0 0 0 0 0 0 0 0 0 0 0 0 0 0
0 0 0 0 0 0 0 0 0 0 0 0 0 0 0 0 0 0 0 0 0 0 0 0 0 0 0 0 0 0 0 0 0 0 0 0 0 0 0 0 0 0 0 0
0 0 0 0 0 0 0 0 0 0 0 0 0 0 0 0 0 0 0 0 0 0 0 0 0 0 0 0 0 0 0 0 0 0 0 0 0 0 0 0 0 0 0 0
0 0 0 0 0 0 0 0 0 0 0 0 0 0 0 0 0 0 0 0 0 0 0 0 0 0 0 0 0 0 0 0 0 0 0 0 0 0 0 0 0 0 0 0
0 0 0 0 0 0 0 0 0 0 0 0 0 0 0 0 0 0 0 0 0 0 0 0 0 0 0 0 0 0 0 0 0 0 0 0 0 0 0 0 0 0 0 0
0 0 0 0 0 0 0 0 0 0 0 0 0 0 0 0 0 0 0 0 0 0 0 0 0 0 0 0 0 0 0 0 0 0 0 0 0 0 0 0 0 0 0 0
0 0 0 0 0 0 0 0 0 0 0 0 0 0 0 0 0 0 0 0 0 0 0 0 0 0 0 0 0 0 0 0 0 0 0 0 0 0 0 0 0 0 0 0
0 0 0 0 0 0 0 0 0 0 0 0 0 0 0 0 0 0 0 0 0 0 0 0 0 0 0 0 0 0 0 0 0 0 0 0 0 0 0 0 0 0 0 0
0 0 0 0 0 0 0 0 0 0 0 0 0 0 0 0 0 0 0 0 0 0 0 0 0 0 0 0 0 0 0 0 0 0 0 0 0 0 0 0 0 0 0 0
0 0 0 0 0 0 0 0 0 0 0 0 0 0 0 0 0 0 0 0 0 0 0 0 0 0 0 0 0 0 0 0 0 0 0 0 0 0 0 0 0 0 0 0
Wind_Speed
6 5 6 8 9 10 12 11 11 10 9 7 4 3 2 2 2 2 1 1 1 1 1 1 1 1 1 2 2 3 4 5 5 5 5 5 5 5 6 6 6 6 6 6
7 6 7 9 11 11 12 12 12 12 10 6 4 3 3 3 3 2 2 2 1 1 1 2 2 1 1 1 2 3 4 4 4 4 4 5 5 5 5 5 6 6 6 6
6 5 7 10 10 11 10 10 10 11 7 4 4 4 3 3 3 3 3 3 3 2 2 2 2 2 2 2 2 3 3 4 4 4 4 4 5 5 5 5 5 6 6 6
6 6 10 3 1 6 7 7 7 6 4 4 4 4 4 3 3 4 4 4 3 3 2 2 2 2 1 2 2 2 3 3 3 4 4 4 4 5 5 5 5 5 6 6
5 7 7 4 4 5 7 6 5 6 5 3 3 4 5 3 3 4 4 4 3 3 3 2 2 2 2 2 2 2 2 2 3 3 3 4 4 4 4 5 5 5 5 6
6 7 6 1 2 2 4 6 3 5 5 4 4 6 3 1 2 3 3 3 2 2 3 2 2 2 3 2 2 2 2 3 3 3 3 4 4 4 4 4 4 5 5 5
9 7 5 1 1 4 6 1 1 2 3 5 6 5 2 2 3 3 3 3 2 3 3 2 2 3 3 3 2 2 2 2 2 3 3 3 3 3 4 4 4 5 5 5
6 7 5 3 3 4 3 3 1 3 3 4 5 4 4 3 3 3 3 3 3 3 2 2 3 3 3 2 2 2 2 2 2 3 2 3 3 3 3 3 4 4 4 4
5 4 2 2 2 3 4 3 3 4 4 4 5 5 4 4 4 3 3 3 3 3 3 2 3 3 3 2 2 2 2 2 2 3 2 3 3 3 3 3 3 3 3 3
6 6 5 5 5 5 4 4 4 4 4 4 5 5 5 4 4 3 4 3 3 3 3 3 2 2 2 1 2 3 3 2 2 2 2 2 2 2 2 3 3 3 3 3
8 7 6 6 6 5 5 5 4 4 4 4 4 5 5 4 3 3 3 3 3 4 3 3 3 2 2 2 2 3 3 2 2 2 2 2 2 2 3 2 2 3 3 3
7 6 6 5 4 4 5 5 4 4 4 4 4 4 4 3 2 2 3 3 4 4 4 3 3 3 3 3 3 3 3 2 2 2 2 2 2 2 0 1 1 1 2 3
7 6 6 6 5 4 4 4 4 4 4 4 4 3 3 3 2 3 3 4 4 4 4 3 3 3 3 3 3 4 3 3 2 3 3 3 3 3 2 2 2 3 3 3
7 6 7 6 5 4 3 3 3 4 4 4 3 3 3 3 3 3 4 4 4 4 4 4 4 3 3 3 3 4 4 3 3 3 3 3 3 3 3 3 3 2 2 3
7 7 7 5 4 4 3 3 3 3 3 3 3 3 3 3 3 4 3 3 3 4 4 4 4 3 3 3 4 4 3 3 3 3 3 3 3 3 3 3 3 2 2 2
5 6 6 6 6 5 5 5 5 4 4 3 3 3 3 3 3 3 3 3 4 4 4 4 4 3 3 3 4 3 3 2 3 3 3 3 3 3 3 3 3 3 2 2
7 7 6 7 6 6 6 5 5 5 4 4 4 3 3 3 3 3 3 4 4 4 4 4 4 3 3 4 4 3 2 2 4 4 3 3 3 3 3 3 3 3 2 2
7 8 7 7 6 6 6 5 5 5 5 4 3 3 4 4 4 4 4 4 4 4 4 3 3 2 3 3 3 3 3 3 3 3 3 3 3 3 3 3 3 3 3 2
6 6 6 6 6 5 5 5 5 4 4 3 3 4 4 4 4 4 4 4 4 4 3 2 2 3 3 3 3 3 3 3 3 3 3 3 3 3 3 3 3 3 3 3
4 4 4 4 4 4 5 4 4 4 3 3 4 4 4 5 4 4 4 4 4 3 3 2 3 3 3 2 2 3 3 4 4 3 3 3 3 3 3 3 3 3 3 3
3 3 3 3 3 3 4 4 4 4 4 4 4 4 4 4 4 3 3 4 3 2 2 2 3 2 2 2 3 3 3 3 3 3 3 3 3 3 3 3 3 3 3 3
3 3 3 3 3 3 3 3 3 4 4 3 4 4 3 3 3 3 4 3 2 1 2 2 2 2 2 2 3 3 3 3 3 3 3 3 3 3 3 3 3 3 3 3
3 3 3 3 3 3 3 3 3 3 3 4 3 4 4 4 3 3 3 2 2 2 2 2 1 1 2 3 2 2 3 3 3 3 3 3 3 3 3 3 3 3 3 3
3 3 3 3 3 3 3 3 3 3 3 3 3 3 4 3 3 3 2 1 1 2 2 1 1 2 3 2 2 2 2 2 2 2 2 2 2 3 3 3 3 3 3 3
3 3 3 3 3 3 3 3 3 2 2 2 2 2 2 2 2 2 1 1 1 1 1 1 1 2 2 2 2 2 2 2 2 2 2 2 2 2 2 2 3 2 2 2
3 3 3 3 3 3 3 3 2 2 2 2 2 2 1 1 1 1 1 1 1 1 1 1 1 1 1 1 1 1 1 1 1 1 1 1 2 2 2 2 2 2 2 2
3 2 2 2 2 3 2 3 3 3 2 2 2 1 1 0 0 0 1 0 1 1 1 1 1 1 1 0 0 0 0 0 0 1 1 1 1 1 1 2 1 1 1 1
Wind_Direction
260 262 253 258 251 238 240 249 257 265 265 264 268 266 250 216 196 184 184 168 172 176 171 175 175 183 208 214 209 209 208 214 222 227 225 229 230 232 237 241 240 237 235 234
247 239 247 256 255 248 245 248 251 258 264 268 268 253 235 212 205 209 218 226 226 223 203 210 210 207 212 223 224 213 211 218 222 229 229 232 234 234 237 242 243 241 239 234
252 245 252 248 242 236 235 235 241 250 258 251 249 249 255 242 228 240 247 245 244 243 244 238 234 232 232 238 235 225 219 220 217 222 228 234 238 239 238 240 241 240 238 236
263 249 245 257 239 240 238 239 240 247 252 253 270 273 257 247 252 255 253 248 246 250 249 235 227 227 227 222 226 229 229 228 226 225 226 230 236 241 243 241 237 240 241 238
245 252 260 243 215 222 228 238 237 237 238 245 270 260 237 232 267 271 265 253 247 248 242 219 211 209 205 209 220 228 240 243 237 235 234 233 234 239 242 241 240 238 239 240
233 246 251 237 152 217 243 236 204 229 236 234 233 254 256 224 265 270 267 256 247 242 226 212 206 206 206 212 224 236 249 254 249 243 236 237 241 244 242 240 242 243 242 242
236 244 257 350 128 184 225 286 109 246 253 240 238 272 308 261 263 265 255 249 241 225 218 214 205 204 216 229 243 256 263 261 258 256 249 245 246 247 244 242 244 245 244 241
226 232 241 112 166 221 316 5 262 266 267 269 274 283 274 262 257 250 241 236 227 214 207 204 203 210 224 247 264 264 259 257 259 261 259 250 242 245 242 239 241 244 248 249
237 254 360 183 247 299 309 284 282 280 278 272 272 273 269 261 250 242 239 230 223 215 200 206 212 224 236 257 268 259 255 257 263 265 262 253 237 232 233 235 238 240 246 253
247 252 260 259 263 274 279 279 284 281 271 259 261 266 263 260 250 236 230 221 219 215 212 213 220 237 250 249 247 248 254 261 260 264 267 262 248 234 230 230 233 237 241 250
248 260 263 252 252 262 271 274 277 276 269 262 261 262 262 256 241 229 217 211 217 222 224 221 219 231 242 238 241 254 260 262 262 261 262 260 252 260 252 241 260 257 250 248
250 256 262 272 280 275 264 261 265 270 271 264 258 258 257 249 238 230 223 215 221 225 229 230 229 235 238 241 244 253 262 265 267 265 259 252 246 224 202 268 250 259 296 285
269 280 277 277 279 272 266 272 276 272 270 269 262 249 247 248 244 237 230 227 228 229 233 236 238 244 243 241 242 249 257 264 267 264 257 250 246 238 226 200 190 202 217 237
254 257 254 250 258 266 268 279 282 280 276 267 260 249 246 249 248 244 239 236 238 238 239 241 243 246 245 242 245 249 255 258 258 257 259 255 252 248 243 240 232 218 193 193
245 249 250 255 257 260 267 269 266 270 271 261 255 250 247 249 255 258 251 242 239 240 244 247 251 256 254 244 244 247 251 252 255 258 256 254 252 247 240 238 239 238 227 175
244 245 239 238 241 247 252 256 261 266 268 261 256 253 253 254 261 264 255 241 237 242 248 250 255 258 250 245 245 246 250 256 260 254 248 247 245 244 238 237 237 232 231 218
236 241 237 237 238 243 249 256 263 270 271 264 260 259 257 254 254 257 256 251 253 254 253 253 256 253 245 242 245 245 243 232 238 247 244 244 245 245 242 239 237 238 234 210
244 250 249 243 243 247 253 257 262 265 264 266 264 258 255 257 261 263 259 257 259 262 261 254 250 247 244 247 251 248 243 243 239 242 242 241 244 244 243 242 240 240 236 197
246 247 247 245 245 248 249 253 260 266 269 264 257 256 260 266 270 271 264 257 257 262 267 262 253 248 251 252 261 249 243 241 239 238 232 227 232 238 239 241 240 237 233 222
251 247 239 240 238 241 247 253 259 263 266 262 258 260 264 268 270 267 260 259 260 267 270 265 252 252 252 244 246 248 245 242 238 236 233 229 228 234 236 237 240 238 234 231
248 240 230 232 238 244 252 256 257 262 268 260 255 259 268 274 271 263 259 264 269 273 271 261 257 257 255 252 239 246 243 243 241 237 234 232 230 231 232 230 230 234 237 237
252 239 231 230 235 245 255 258 257 262 265 263 263 264 265 266 265 263 261 266 271 261 255 250 252 263 251 253 246 245 243 241 241 239 239 238 236 235 235 235 235 234 236 238
258 248 238 236 240 248 260 261 257 255 257 262 265 262 261 265 266 263 267 270 258 244 251 253 263 245 255 254 247 241 242 243 240 238 237 237 241 240 237 238 239 235 233 232
256 252 254 254 243 240 251 262 263 259 260 263 263 262 260 258 260 265 277 239 246 256 261 241 239 253 261 256 238 238 245 246 245 245 244 242 236 235 236 236 235 231 230 230
256 254 251 248 247 252 259 264 263 261 257 262 267 267 264 261 262 267 271 254 235 262 268 241 243 261 256 244 236 239 242 240 246 250 246 244 242 240 238 233 231 228 225 222
255 249 249 252 259 260 256 251 251 256 258 258 262 272 276 277 267 259 253 245 248 278 288 280 266 264 262 257 254 250 245 232 235 246 251 251 241 240 232 220 218 218 220 219
253 254 254 254 254 251 249 247 249 251 249 246 253 268 275 266 212 210 224 255 268 268 294 299 294 289 286 301 342 331 308 302 284 275 267 258 245 236 216 211 212 206 206 205